Regional Weather Roundup
Issued by NWS

Home | Current Version | Previous Version | Graphics & Text | Print | Product List | Glossary On
Versions: 1 2 3 4 5 6 7 8 9 10 11 12 13 14 15 16 17 18 19 20 21 22 23 24 25 26 27 28 29 30 31 32 33 34 35 36 37 38 39 40 41 42 43 44 45 46 47 48 49 50
000
ASUS43 KDTX 162110
RWRMI
MICHIGAN HOURLY REGIONAL WEATHER ROUNDUP
NATIONAL WEATHER SERVICE DETROIT/PONTIAC MI
ISSUED BY NATIONAL WEATHER SERVICE GRAND RAPIDS MI
400 PM EST MON JAN 16 2017

NOTE: "FAIR" INDICATES FEW OR NO CLOUDS BELOW 12,000 FEET WITH NO
SIGNIFICANT WEATHER AND/OR OBSTRUCTION TO VISIBILITY.

MIZ047>049-052>055-059>063-066>070-074>076-081>083-162200-
SOUTHEAST LOWER MICHIGAN

CITY           SKY/WX    TMP DP  RH WIND       PRES   REMARKS
ADRIAN         CLOUDY    33  30  88 E10       30.20F WCI  25
ALMA           MIX PCPN  32  29  88 E5        30.22F WCI  27
ANN ARBOR      CLOUDY    34  28  79 NE5       30.21F HAZE    WCI  30
BAD AXE        CLOUDY    34  20  57 SW3       30.23S
DETROIT        LGT RAIN  35  29  78 E5        30.23F WCI  31
FLINT          LGT RAIN  33  26  75 E5        30.23F WCI  29
GROSSE ILE     MIX PCPN  33  31  91 CALM      30.22F
HILLSDALE      FOG       32  32 100 E7        30.16S VSB 3/4 WCI  26
HOWELL         MIX PCPN  33  29  85 E6        30.20F WCI  27

CITY           SKY/WX    TMP DP  RH WIND       PRES   REMARKS
JACKSON        CLOUDY    35  28  75 SE8       30.18F WCI  29
LANSING        LGT RAIN  34  30  85 E8        30.20F FOG     WCI  27
MASON          LGT RAIN  32  31  95 NE3       30.20S
MONROE         CLOUDY    33  32  94 E6        30.21F FOG     WCI  28
MT. CLEMENS    CLOUDY    32  32 100 E3        30.24S
PONTIAC        LGT RAIN  32  27  81 E6        30.21F FOG     WCI  26
PORT HOPE        N/A     35  20  54 SW5       30.22S WCI  31
PORT HURON     CLOUDY    32  28  86 CALM      30.27S
TRI CITIES     CLOUDY    33  26  75 S5        30.24F WCI  29
YPSILANTI      CLOUDY    35  28  75 E5        30.22F WCI  31
$$
MIZ043>046-050>051-056>058-064>065-071>073-077>080-162200-
SOUTHWEST LOWER MICHIGAN

CITY           SKY/WX    TMP DP  RH WIND       PRES   REMARKS
BATTLE CREEK   LGT RAIN  35  34  96 E7        30.16S FOG     WCI  29
BENTON HARBOR  LGT RAIN  36  34  92 E9        30.12F FOG     WCI  29
BIG RAPIDS     MIX PCPN  33  20  58 S5        30.18S WCI  29
COLDWATER      CLOUDY    36  36 100 SE6       30.16S FOG     WCI  31
HOLLAND        LGT RAIN  34  31  88 E8        30.16F WCI  27
GRAND RAPIDS   LGT RAIN  32  29  88 E10       30.17F FOG     WCI  24
KALAMAZOO      LGT RAIN  36  32  85 E6        30.15F FOG     WCI  31
MARSHALL       CLOUDY    35  32  91 NE5       30.15F WCI  31
MOUNT PLEASANT CLOUDY    32  24  72 SE6       30.21S WCI  27
MUSKEGON       LGT RAIN  34  31  88 E9        30.17F FOG     WCI  27
STURGIS        FOG       35  34  98 SE6       30.14S VSB 1   WCI  30
$$
MIZ016>042-162200-
NORTHERN LOWER MICHIGAN

CITY           SKY/WX    TMP DP  RH WIND       PRES   REMARKS
ALPENA         CLOUDY    39  18  42 SW5       30.18F
BEAVER ISLAND  CLOUDY    34  27  75 SW5       30.17S WCI  30
BELLAIRE       CLOUDY    34  26  74 CALM      30.19F
CADILLAC       CLOUDY    33  28  79 CALM      30.15F
CHARLEVOIX     CLOUDY    36  26  69 S3        30.21R
GAYLORD        CLOUDY    32  22  66 SW6       30.15F WCI  26
HOUGHTON LAKE  CLOUDY    32  25  75 CALM      30.18F
MANISTEE       MOSUNNY   36  30  79 CALM      30.17F
OSCODA         CLOUDY    34  24  66 SW6       30.20S WCI  29
PELLSTON       CLOUDY    36  20  52 SW7       30.18S WCI  30
TRAVERSE CITY  CLOUDY    38  25  59 CALM      30.17F
LUDINGTON      LGT RAIN  34  31  89 SE5       30.17S WCI  30
$$
MIZ007>008-015-162200-
EASTERN UPPER MICHIGAN

CITY           SKY/WX    TMP DP  RH WIND       PRES   REMARKS
KINROSS        SUNNY     36  24  62 SW6       30.16R WCI  31
MACKINAC ISLAN CLOUDY    33  28  85 W8        30.17R WCI  25
NEWBERRY       SUNNY     31  19  62 CALM      30.14F
S. S. MARIE    CLEAR     35  22  58 CALM      30.15S
$$
MIZ004>006-011>014-085-162200-
CENTRAL UPPER MICHIGAN

CITY           SKY/WX    TMP DP  RH WIND       PRES   REMARKS
MANISTIQUE     CLOUDY    29  23  77 CALM      30.15S
ESCANABA       CLOUDY    30  22  72 CALM      30.16S
SAWYER-GWINN   SUNNY     34  19  55 S5        30.10F WCI  30
$$
MIZ001>003-009>011-084-162200-
WESTERN UPPER MICHIGAN

CITY           SKY/WX    TMP DP  RH WIND       PRES   REMARKS
IRON MOUNTAIN  CLOUDY    32  16  51 E6        30.10R WCI  26
HOUGHTON       SUNNY     32  22  66 W3        30.08R
COPPER HARBOR    N/A     34  28  79 N8        30.10S WCI  27
IRONWOOD       CLOUDY    37  20  50 E6        30.06F WCI  32
$$

ABBREVIATIONS USED IN REMARKS
   TC - TEMPERATURE IN CELSIUS
  WCI - WIND CHILL INDEX
   HX - HEAT INDEX
  VSB - VISIBILITY





USA.gov is the U.S. government's official web portal to all federal, state and local government web resources and services.